Find Starlink 3191

NORAD ID: 49770 Int'l Des: 2021-115 Owner: SPXS Country: US Constellation: starlink operational
LEOCIRCULAR

リアルタイム位置

3D地球を読み込み中...

Starlink 3191について

説明を読み込み中...

次回通過

Passes for default location (London). Set your location on the main map for personalized predictions.

高度履歴

Loading altitude history...

軌道要素

1 49770U 21115AY 26105.89657902 .00002357 00000-0 16611-3 0 9992
2 49770 53.2196 332.1406 0001020 112.5606 247.5494 15.08843510242411
Epoch: Apr 15, 2026 • Age: 14 hours

現在のステータス

高度 556.7 km
速度 7.58 km/s
衛星直下点 -47.54°S, 102.4°W
打ち上げ日 Dec 2, 2021
運用期間 4.3 years
タイプ internet

技術仕様

分類 Payload
質量 290.00 kg
乾燥質量 270.00 kg
総質量 290.00 kg
長さ 0.20 m
直径 2.80 m
スパン 9.00 m
形状 Box + pan
製造者 SPXS
バスタイプ Starlink
フェーズステータス In Orbit
所有者/国 SPXS/US

Most Searched